[[{"header":{"parameterUnit":"m.s-1","parameterCategory":1,"la1":30.2991,"la2":30.254,"lo1":-89.0895,"lo2":-89.0444,"dy":0.0017,"dx":0.0017,"nx":28,"ny":28,"refTime":"2025-01-07T09:00:00:Z","depth":0,"parameterNumber":2,"parameterNumberName":"U-component_of_WINDS"},"data":[0,0,0,0,0,0,0,0,0,0,0,0,0,0,0,0,0,0,0,0,0,0,0,0,0,0,0,0,0,0,0,0,0,0,0,0,0,0,0,0,0,0,0,0,0,0,0,0,0,0,0,0,0,0,0,0,0,0,0.1128,0.1127,0,0.1074,0.1074,0.1073,0.1101,0.1102,0.1104,0.1105,0.1048,0.1045,0.1042,0,0,0,0,0,0,0,0,0,0,0,0,0,0.1251,0.1249,0.1128,0.1127,0.1126,0.1075,0.1074,0.1073,0.1101,0.1102,0.1104,0.1106,0.1049,0.1046,0.1042,0,0,0,0,0,0,0,0,0,0,0,0,0,0.1198,0.1248,0.1128,0.1134,0.1134,0.1075,0.1074,0.1073,0.11,0.1102,0.1104,0.1106,0.105,0.1046,0.1042,0.0973,0,0,0.1029,0.1027,0,0,0,0,0,0,0,0,0.1201,0.1193,0.1134,0.1133,0.1133,0.1096,0.1097,0.1039,0.11,0.1113,0.1105,0.1107,0.1062,0.1057,0.1042,0.097,0.0968,0.1028,0.1026,0.1024,0.1023,0,0,0,0,0,0,0,0.1204,0.1196,0.1106,0.1133,0.1132,0.1139,0.1133,0.1086,0.1076,0.1112,0.1114,0.1107,0.1063,0.1046,0.1041,0.0967,0.1028,0.1025,0.1022,0.102,0.0835,0.0833,0,0,0,0,0,0,0.1208,0.1199,0.1108,0.1105,0.1173,0.1135,0.1129,0.1106,0.1077,0.1074,0.1105,0.1109,0.1053,0.1046,0.1039,0.0956,0.1024,0.102,0.1017,0.0838,0.0835,0.0832,0,0,0,0,0,0,0.1211,0.12,0.111,0.1152,0.1141,0.113,0.1104,0.1104,0.1088,0.1072,0.107,0.1091,0.1054,0.1045,0.0989,0.0954,0.1018,0.1014,0.0841,0.0837,0.0834,0.0789,0,0,0,0,0,0,0.1214,0.1201,0.1174,0.1151,0.1139,0.1061,0.1102,0.1101,0.1081,0.1084,0.1058,0.1055,0.1055,0.0995,0.0985,0.095,0.1011,0.0844,0.0839,0.0835,0.0794,0.0785,0.0777,0,0,0,0,0,0.1218,0.1163,0.1173,0.1162,0.1106,0.1059,0.1052,0.1053,0.1078,0.1051,0.1041,0.1056,0.0961,0.099,0.0978,0.0941,0.0846,0.084,0.0835,0.0797,0.0786,0.0777,0,0,0,0,0,0,0.1181,0.116,0.1171,0.1107,0.1085,0.1064,0.103,0.1042,0.1012,0.1016,0.1019,0.1013,0.0954,0.0942,0.0975,0.0873,0.0907,0.0899,0.0882,0.0872,0.0863,0.0866,0.1007,0,0,0,0,0,0.1166,0.113,0.1114,0.1059,0.1047,0.1041,0.102,0.1024,0.1001,0.0991,0.0977,0.0953,0.0918,0.0895,0.0861,0.0793,0.0787,0.0762,0.0754,0.0747,0.0739,0.0702,0.069,0.0815,0.0815,0.0815,0,0,0.1133,0.1117,0.1094,0.1051,0.1034,0.0996,0.1033,0.0991,0.0963,0.0985,0.093,0.092,0.0894,0.0831,0.0803,0.0819,0.0704,0.074,0.0735,0.0731,0.0695,0.0684,0.0673,0.0811,0.0812,0.0813,0,0,0.1053,0.1039,0.0991,0.0974,0.0949,0.0945,0.0934,0.0912,0.0905,0.0852,0.0867,0.0834,0.0773,0.0754,0.0736,0.0652,0.0664,0.0641,0.0596,0.056,0.055,0.0541,0.051,0.0498,0.0634,0.0634,0.0634,0,0.1015,0.096,0.0965,0.0922,0.0902,0.0922,0.0874,0.0857,0.0822,0.0807,0.0827,0.0752,0.0736,0.0669,0.0648,0.0634,0.062,0.0643,0.0551,0.0542,0.0534,0.0504,0.0493,0.0631,0.0631,0.0632,0.0632,0,0.0914,0.0875,0.084,0.0806,0.0783,0.0737,0.0735,0.0711,0.0717,0.0711,0.0657,0.0639,0.0602,0.0587,0.0592,0.0521,0.0532,0.0551,0.0585,0.0519,0.0491,0.048,0.0627,0.0628,0.0629,0.063,0,0,0.0806,0.0778,0.0765,0.075,0.0724,0.0694,0.065,0.0615,0.0594,0.057,0.0532,0.0482,0.05,0.048,0.0483,0.0452,0.0385,0.0475,0.0474,0.0457,0.0304,0.0288,0.0275,0.0394,0.0392,0.039,0.0306,0,0.0724,0.0647,0.0651,0.0579,0.0543,0.0562,0.0524,0.0504,0.0498,0.0466,0.046,0.0423,0.045,0.0438,0.0408,0.0399,0.0353,0.0406,0.0358,0.0356,0.0361,0.026,0.0243,0.0164,0.0295,0.0293,0.0292,0,0.0617,0.059,0.0514,0.0494,0.048,0.0445,0.0413,0.0384,0.0362,0.036,0.0338,0.0347,0.0302,0.0339,0.0277,0.0313,0.0294,0.0287,0.0284,0.0277,0.0318,0.0249,0.0139,0.0126,0.0275,0.0276,0.0277,0,0.0544,0.0489,0.0437,0.0424,0.04,0.0375,0.0364,0.0344,0.0323,0.0296,0.0283,0.0251,0.0232,0.0207,0.0207,0.0235,0.0144,0.0181,0.014,0.014,0.0118,0.0119,0.0001,0.0109,0.0109,0.011,0.011,0,0.045,0.0402,0.0404,0.0371,0.0318,0.0324,0.0272,0.0264,0.0246,0.0212,0.0228,0.0195,0.0199,0.0166,0.0166,0.0114,0.0106,0.0102,0.0103,0.01,0.01,0.0085,0.009,0.0107,0.0107,0.0108,0.0108,0,0.0359,0.0358,0.0302,0.0285,0.028,0.0241,0.0227,0.0196,0.0192,0.0149,0.0139,0.0133,0.0095,0.0094,0.005,0.0051,-0.0013,-0.0006,-0.0006,-0.0005,-0.0047,-0.0044,-0.018,-0.0198,-0.0076,-0.0078,-0.0078,0,0.0298,0.0262,0.0241,0.022,0.0208,0.0173,0.0152,0.0158,0.0135,0.0108,0.008,0.0045,0.0016,-0.0045,-0.0054,-0.0087,-0.0081,-0.0126,-0.0086,-0.0088,-0.0084,-0.0083,-0.0087,-0.0135,-0.0137,-0.0138,-0.0139,0,0.0189,0.0191,0.016,0.013,0.0105,0.0081,0.0059,0.004,0.0043,0.0017,-0.0021,-0.0043,-0.0086,-0.0122,-0.0154,-0.0165,-0.0153,-0.0151,-0.0162,-0.0167,-0.0166,-0.0169,-0.003,-0.0148,-0.0147,-0.0147,-0.0146,-0.0146,0.011,0.0079,0.006,0.0025,0.001,-0.0011,-0.0041,-0.0047,-0.0079,-0.0113,-0.0108,-0.015,-0.017,-0.0211,-0.0225,-0.0258,-0.0243,-0.0259,-0.0264,-0.0269,-0.0274,-0.0159,-0.0264,-0.0263,-0.0263,-0.0263,-0.0263,0,0.0,-0.001,-0.0042,-0.0073,-0.01,-0.0082,-0.0106,-0.013,-0.0167,-0.0186,-0.0214,-0.0257,-0.0291,-0.0302,-0.0335,-0.036,-0.0354,-0.0369,-0.0368,-0.0371,-0.0285,-0.0272,-0.0372,-0.0372,-0.0372,-0.0372,-0.0372,-0.0372,-0.006,-0.0112,-0.0112,-0.0171,-0.0182,-0.0223,-0.0237,-0.0256,-0.0272,-0.032,-0.0349,-0.0354,-0.037,-0.0404,-0.0435,-0.0437,-0.0451,-0.0468,-0.0468,-0.0388,-0.0377,-0.0367,-0.0355,-0.0471,-0.0471,-0.0552,-0.0552,-0.0553]},{"header":{"parameterUnit":"m.s-1","parameterCategory":1,"la1":30.2991,"la2":30.254,"lo1":-89.0895,"lo2":-89.0444,"dy":0.0017,"dx":0.0017,"nx":28,"ny":28,"refTime":"2025-01-07T09:00:00:Z","depth":0,"parameterNumber":3,"parameterNumberName":"V-component_of_WINDS"},"data":[0,0,0,0,0,0,0,0,0,0,0,0,0,0,0,0,0,0,0,0,0,0,0,0,0,0,0,0,0,0,0,0,0,0,0,0,0,0,0,0,0,0,0,0,0,0,0,0,0,0,0,0,0,0,0,0,0,0,-6.7578,-6.758,0,-6.7751,-6.7753,-6.7755,-6.7687,-6.7683,-6.7679,-6.7675,-6.7848,-6.7856,-6.7864,0,0,0,0,0,0,0,0,0,0,0,0,0,-6.7183,-6.7191,-6.7578,-6.758,-6.7582,-6.7751,-6.7753,-6.7756,-6.7688,-6.7683,-6.7678,-6.7673,-6.7845,-6.7855,-6.7865,0,0,0,0,0,0,0,0,0,0,0,0,0,-6.7355,-6.7193,-6.7578,-6.7569,-6.757,-6.7751,-6.7753,-6.7756,-6.7689,-6.7683,-6.7677,-6.7671,-6.7842,-6.7854,-6.7867,-6.8065,0,0,-6.7905,-6.791,0,0,0,0,0,0,0,0,-6.7346,-6.737,-6.7568,-6.757,-6.7571,-6.7691,-6.7677,-6.786,-6.769,-6.7644,-6.7675,-6.7668,-6.7801,-6.7816,-6.7862,-6.8073,-6.808,-6.7906,-6.7914,-6.7919,-6.7923,0,0,0,0,0,0,0,-6.7334,-6.7362,-6.7646,-6.7571,-6.7573,-6.7555,-6.7572,-6.7712,-6.7754,-6.7647,-6.7643,-6.7664,-6.78,-6.785,-6.7865,-6.8083,-6.7906,-6.7917,-6.7925,-6.7929,-6.8463,-6.8469,0,0,0,0,0,0,-6.7322,-6.7352,-6.7641,-6.7652,-6.7441,-6.7567,-6.7586,-6.7659,-6.7752,-6.776,-6.7669,-6.766,-6.7831,-6.7851,-6.7871,-6.8108,-6.7919,-6.7931,-6.7938,-6.8456,-6.8464,-6.8472,0,0,0,0,0,0,-6.7314,-6.7348,-6.7634,-6.7501,-6.7536,-6.758,-6.7662,-6.7666,-6.7715,-6.7769,-6.7775,-6.7713,-6.7827,-6.7853,-6.8017,-6.8113,-6.7936,-6.7948,-6.8449,-6.8459,-6.8468,-6.8585,0,0,0,0,0,0,-6.7303,-6.7346,-6.7423,-6.7503,-6.7543,-6.7779,-6.7668,-6.7673,-6.7737,-6.7728,-6.7811,-6.7819,-6.7825,-6.7999,-6.803,-6.8127,-6.7957,-6.844,-6.8453,-6.8465,-6.8573,-6.8598,-6.8619,0,0,0,0,0,-6.7289,-6.7449,-6.7427,-6.7463,-6.7641,-6.7785,-6.7807,-6.7812,-6.7746,-6.7822,-6.7857,-6.7817,-6.8098,-6.8016,-6.805,-6.8153,-6.8434,-6.8449,-6.8464,-6.8562,-6.8593,-6.8619,0,0,0,0,0,0,-6.7378,-6.7459,-6.7436,-6.7627,-6.77,-6.7773,-6.7871,-6.7844,-6.7936,-6.7923,-6.7923,-6.7942,-6.8111,-6.8148,-6.8056,-6.8349,-6.8256,-6.8278,-6.8319,-6.8348,-6.8371,-6.8358,-6.7968,0,0,0,0,0,-6.7419,-6.7531,-6.7595,-6.7757,-6.7795,-6.7827,-6.7889,-6.7887,-6.7961,-6.7991,-6.8037,-6.811,-6.8214,-6.8283,-6.8382,-6.8577,-6.8594,-6.8665,-6.8688,-6.8707,-6.8726,-6.8831,-6.8863,-6.8521,-6.8521,-6.852,0,0,-6.7507,-6.7565,-6.7635,-6.7777,-6.7832,-6.7946,-6.7853,-6.7978,-6.8062,-6.8009,-6.8167,-6.8203,-6.8284,-6.8464,-6.8546,-6.85,-6.8824,-6.8726,-6.8741,-6.875,-6.885,-6.8882,-6.8911,-6.8531,-6.8529,-6.8528,0,0,-6.7724,-6.778,-6.7921,-6.7979,-6.8065,-6.8085,-6.8118,-6.8196,-6.8218,-6.8377,-6.834,-6.8438,-6.8619,-6.8678,-6.8731,-6.8969,-6.8935,-6.9001,-6.9123,-6.9224,-6.9251,-6.9275,-6.9359,-6.939,-6.902,-6.9021,-6.9021,0,-6.7822,-6.7994,-6.7996,-6.8124,-6.8186,-6.8145,-6.8286,-6.8342,-6.8456,-6.8499,-6.8447,-6.8672,-6.8723,-6.8916,-6.8974,-6.9019,-6.9056,-6.8992,-6.9248,-6.9272,-6.9294,-6.9374,-6.9406,-6.9028,-6.9027,-6.9026,-6.9026,0,-6.8109,-6.8228,-6.8331,-6.8443,-6.8517,-6.8651,-6.8671,-6.8746,-6.8736,-6.876,-6.8921,-6.8981,-6.9091,-6.9136,-6.9128,-6.9328,-6.9297,-6.9247,-6.9153,-6.9334,-6.9409,-6.944,-6.9039,-6.9036,-6.9034,-6.9032,0,0,-6.8388,-6.8499,-6.8537,-6.8586,-6.8678,-6.8769,-6.89,-6.9009,-6.9072,-6.9151,-6.926,-6.9413,-6.9367,-6.9427,-6.9424,-6.9514,-6.9697,-6.9452,-6.9454,-6.9495,-6.992,-6.9957,-6.9993,-6.9675,-6.9681,-6.9686,-6.9913,0,-6.8612,-6.8844,-6.8849,-6.9061,-6.917,-6.9132,-6.9245,-6.9313,-6.9339,-6.9434,-6.9462,-6.957,-6.9501,-6.9537,-6.9624,-6.9657,-6.9783,-6.964,-6.9775,-6.978,-6.9756,-7.0033,-7.0073,-7.0285,-6.9943,-6.9948,-6.9951,0,-6.8905,-6.8995,-6.9218,-6.9293,-6.9338,-6.9441,-6.954,-6.9633,-6.9707,-6.9719,-6.9787,-6.977,-6.9902,-6.9804,-6.9984,-6.9887,-6.9942,-6.9966,-6.9974,-6.9987,-6.9877,-7.0053,-7.0353,-7.0384,-6.9998,-6.9994,-6.9991,0,-6.9086,-6.9262,-6.9418,-6.9462,-6.9553,-6.9626,-6.9666,-6.9735,-6.98,-6.9886,-6.9928,-7.0027,-7.0082,-7.0159,-7.0169,-7.0097,-7.0349,-7.0252,-7.0362,-7.0362,-7.0417,-7.0414,-7.073,-7.0453,-7.0453,-7.0452,-7.0451,0,-6.9336,-6.9474,-6.9501,-6.9597,-6.9749,-6.9752,-6.9903,-6.9937,-6.9999,-7.0099,-7.0071,-7.0165,-7.0173,-7.027,-7.0278,-7.0425,-7.045,-7.0462,-7.0463,-7.0465,-7.0464,-7.0501,-7.0487,-7.0461,-7.0459,-7.0457,-7.0456,0,-6.9565,-6.9588,-6.9755,-6.9828,-6.9849,-6.9958,-7.0019,-7.0109,-7.0132,-7.0259,-7.0289,-7.0325,-7.0437,-7.0454,-7.0585,-7.0591,-7.0767,-7.0752,-7.0743,-7.0741,-7.0849,-7.0839,-7.1201,-7.1248,-7.094,-7.0943,-7.0946,0,-6.9723,-6.9828,-6.9911,-6.9977,-7.0022,-7.0129,-7.0195,-7.0201,-7.0271,-7.0363,-7.0442,-7.0551,-7.0639,-7.082,-7.0856,-7.0956,-7.0943,-7.1063,-7.0958,-7.0956,-7.0944,-7.0938,-7.0948,-7.1083,-7.1087,-7.1089,-7.1092,0,-7.0001,-7.0007,-7.0104,-7.0206,-7.0285,-7.0365,-7.044,-7.0495,-7.051,-7.059,-7.0705,-7.0773,-7.0907,-7.1016,-7.1114,-7.1154,-7.1126,-7.1124,-7.1155,-7.1159,-7.1148,-7.1155,-7.0798,-7.1116,-7.1114,-7.1112,-7.1111,-7.111,-7.0199,-7.029,-7.0363,-7.0471,-7.0529,-7.0599,-7.0688,-7.0722,-7.0818,-7.0929,-7.0926,-7.1052,-7.1121,-7.1251,-7.1298,-7.1395,-7.1356,-7.14,-7.1411,-7.1422,-7.1433,-7.1133,-7.1413,-7.1412,-7.1411,-7.1411,-7.141,0,-7.0475,-7.052,-7.062,-7.0726,-7.0811,-7.0778,-7.0858,-7.0931,-7.1043,-7.1111,-7.1198,-7.1329,-7.1434,-7.1478,-7.158,-7.165,-7.1639,-7.1676,-7.1671,-7.168,-7.1462,-7.1425,-7.1683,-7.1683,-7.1683,-7.1683,-7.1683,-7.1683,-7.0629,-7.0781,-7.0796,-7.0976,-7.1019,-7.1143,-7.1192,-7.1256,-7.131,-7.1459,-7.1546,-7.1574,-7.1632,-7.1738,-7.1832,-7.1842,-7.1881,-7.1924,-7.1928,-7.1724,-7.1696,-7.167,-7.1635,-7.1932,-7.1933,-7.2138,-7.214,-7.2142]}]]